Regional Weather Roundup
Issued by NWS

Home | Current Version | Previous Version | Text Only | Print | Product List | Glossary On
Versions: 1 2 3 4 5 6 7 8 9 10 11 12 13 14 15 16 17 18 19 20 21 22 23 24 25 26 27 28 29 30 31 32 33 34 35 36 37 38 39 40 41 42 43 44 45 46 47 48 49 50
000
ASUS43 KTOP 271508
RWRKS

WEATHER ROUNDUP FOR KANSAS
NATIONAL WEATHER SERVICE GOODLAND KS
1000 AM CDT TUE JUN 27 2017

NOTE:  "FAIR" INDICATES FEW OR NO CLOUDS BELOW 12,000 FEET WITH NO
SIGNIFICANT WEATHER AND/OR OBSTRUCTIONS TO VISIBILITY.

KSZ001>006-013>018-027>032-041>047-271600-
NORTHWEST KANSAS

CITY           SKY/WX    TMP DP  RH WIND       PRES   REMARKS
GOODLAND       CLOUDY    61  61 100 S12       29.97F FOG
HAYS           CLOUDY    70  65  84 SE13      29.98F
HILL CITY      CLOUDY    66  64  93 SE14      29.98F FOG
RUSSELL        PTSUNNY   72  63  73 SE16      29.98F
$$

KSZ061>065-074>080-084>089-271600-
SOUTHWEST KANSAS

CITY           SKY/WX    TMP DP  RH WIND       PRES   REMARKS
DODGE CITY     SUNNY     78  64  61 S20       29.99F
ELKHART          N/A     74  51  44 S15         N/A
GARDEN CITY    SUNNY     81  59  47 SW17      29.98F
GREAT BEND     MOSUNNY   74  66  76 S15       29.98F
LIBERAL        SUNNY     80  58  46 SW20      30.03F
PRATT          SUNNY     75  64  70 S17       30.01S
$$

KSZ066>073-081>083-090>101-271600-
SOUTHEAST KANSAS

CITY           SKY/WX    TMP DP  RH WIND       PRES   REMARKS
CHANUTE        CLOUDY    69  64  84 E8        30.08F
COFFEYVILLE    CLOUDY    75  66  73 S8        30.07F
HUTCHINSON     CLOUDY    69  63  81 SE14      30.02F
MEDICINE LODGE   N/A     77  67  71 S12       30.00F
NEWTON         LGT RAIN  66  64  93 SE13      30.05F
PARSONS        MOSUNNY   75  66  73 S6        30.09F
WICHITA INTL   CLOUDY    69  65  86 SE13      30.03F
WICHITA JABRA  CLOUDY    69  66  90 S14       30.03F
WINFIELD       CLOUDY    73  67  81 S9        30.05F
$$

KSZ007>012-019>026-033>040-048>060-102>105-271600-
NORTHEAST KANSAS

CITY           SKY/WX    TMP DP  RH WIND       PRES   REMARKS
CONCORDIA      SUNNY     71  62  73 SE15      30.02F
EMPORIA        MOSUNNY   70  64  81 SE12      30.07F
LAWRENCE       SUNNY     70  60  70 E13       30.09F
MANHATTAN      PTSUNNY   70  63  78 S9        30.05F
MARYSVILLE     PTSUNNY   68  61  77 SE9       30.06F
OLATHE IND     SUNNY     69  57  65 SE16G23   30.10F
OLATHE EXE     SUNNY     69  59  70 SE10G21   30.10F
SALINA         CLOUDY    71  64  78 SE14      30.02F
TOPEKA BILLARD SUNNY     70  63  78 SE10      30.08F
TOPEKA FORBES  PTSUNNY   69  62  78 SE13      30.08F
$$



USA.gov is the U.S. government's official web portal to all federal, state and local government web resources and services.